sat.trackr.live / text

‹ back to catalog

STARLINK-33970

NORAD 64106 · 2025-110L

PAYLOAD ACTIVE UNKNOWN

§ Identity

Operator
Country
US
Launch date
2025-05-23
Launch site
AFWTR
Launch vehicle
Mass (kg)
RCS (m²)

Purposes: comms

External: N2YO · Heavens-Above · Gunter

§ Orbital elements

Epoch: 2026-09-20T07:25:04.880064Z

Period
93.85 min
Inclination
53.1601°
Eccentricity
0.0001333
Mean motion
15.34408206 rev/d
Perigee alt
461.8 km
Apogee alt
463.6 km
Semi-major
6,840.8 km
B*
3.9675e-4
RAAN
198.9444°
Arg perigee
89.1303°
Mean anomaly
270.9852°
Rev number
7,573

§ Raw data

STARLINK-339701 64106U 25110L   26263.30908426  .00013056  00000+0  39675-3 0  99942 64106  53.1601 198.9444 0001333  89.1303 270.9852 15.34408206 75736

JSON: /api/v1/satellites/64106 · /tle

For live sub-satellite position, see the globe view (requires WebGL).

§ Visibility from observer

Set your observer location to see the next 7 days of passes ≥ 10°. The values pass through the URL so the page stays shareable.

No JS? Fill the form by hand. The geolocation button needs JavaScript.